Find Starlink 32497

NORAD ID: 62161 Int'l Des: 2024-224 Owner: SPXS Country: US Constellation: starlink operational
LEOCIRCULAR

实时位置

正在加载3D地球...

关于 Starlink 32497

正在加载描述...

即将过境

Passes for default location (London). Set your location on the main map for personalized predictions.

高度历史

Loading altitude history...

两行轨道根数

1 62161U 24224Y 26106.89177135 .00008773 00000-0 32794-3 0 9999
2 62161 42.9993 305.7240 0001318 255.3863 104.6843 15.27579937 78275
Epoch: Apr 16, 2026 • Age: 22 hours

当前状态

高度 486.7 km
速度 7.63 km/s
星下点 41.67°N, 129.38°W
发射日期 Nov 30, 2024
运行时间 1.3 years
类型 internet

技术详情

分类 Payload
质量 730.00 kg
干质量 700.00 kg
总质量 730.00 kg
长度 0.30 m
直径 4.10 m
跨度 29.00 m
形状 Box + pan
制造商 SPXS
平台类型 Starlink V2M
阶段状态 In Orbit
所有者/国家 SPXS/US

Most Searched